• In Hungary
  • List of Countries
  • For 7 days
  • Water Temperature
  • Satellite Maps
  • Weather Map
  • News
  • Weather Widgets
  • user-avatar
    Login

    Hourly Weather Vsevolodchino

    Today, 17 July, Tuesday

    Time Temperature Precipitation Wind Pressure Humidity
    00:00 +21°C° 0.1 mm 2 mps 729 mmHg 80%
    01:00 +21°C° 1.1 mm 2 mps 729 mmHg 84%
    02:00 +20°C° 1.1 mm 3 mps 728 mmHg 88%
    03:00 +20°C° 0 mm 2 mps 729 mmHg 94%
    04:00 +20°C° 0.6 mm 3 mps 728 mmHg 93%
    05:00 +20°C° 0.6 mm 4 mps 728 mmHg 92%
    06:00 +20°C° 0.6 mm 5 mps 727 mmHg 90%
    07:00 +21°C° 0.4 mm 6 mps 727 mmHg 88%
    08:00 +21°C° 0.4 mm 7 mps 727 mmHg 86%
    09:00 +21°C° 0 mm 9 mps 727 mmHg 82%
    10:00 +22°C° 0.3 mm 9 mps 726 mmHg 82%
    11:00 +22°C° 0.3 mm 8 mps 726 mmHg 82%
    12:00 +22°C° 0.3 mm 8 mps 726 mmHg 82%
    13:00 +23°C° 0.7 mm 8 mps 725 mmHg 81%
    14:00 +23°C° 0.7 mm 8 mps 725 mmHg 79%
    15:00 +24°C° 0.7 mm 8 mps 725 mmHg 78%
    16:00 +23°C° 0.7 mm 7 mps 725 mmHg 80%
    17:00 +23°C° 0.7 mm 6 mps 725 mmHg 81%
    18:00 +23°C° 0.7 mm 5 mps 724 mmHg 83%
    19:00 +22°C° 0 mm 5 mps 725 mmHg 85%
    20:00 +21°C° 0 mm 4 mps 725 mmHg 88%
    21:00 +20°C° 0 mm 4 mps 725 mmHg 90%
    22:00 +19°C° 0 mm 4 mps 725 mmHg 91%
    23:00 +19°C° 0 mm 4 mps 725 mmHg 91%

    Tomorrow, 18 July, Wednesday

    Time Temperature Precipitation Wind Pressure Humidity
    00:00 +18°C° 0 mm 3 mps 725 mmHg 92%
    01:00 +18°C° 0 mm 3 mps 725 mmHg 92%
    02:00 +18°C° 0 mm 3 mps 725 mmHg 92%
    03:00 +18°C° 0 mm 3 mps 725 mmHg 92%
    04:00 +19°C° 0.1 mm 4 mps 725 mmHg 90%
    05:00 +19°C° 0.1 mm 4 mps 725 mmHg 89%
    06:00 +20°C° 0.1 mm 5 mps 725 mmHg 88%
    07:00 +21°C° 0.6 mm 5 mps 726 mmHg 84%
    08:00 +22°C° 0.6 mm 6 mps 726 mmHg 80%
    09:00 +23°C° 0.6 mm 6 mps 726 mmHg 76%
    10:00 +23°C° 0.8 mm 6 mps 726 mmHg 75%
    11:00 +23°C° 0.8 mm 6 mps 726 mmHg 75%
    12:00 +23°C° 0.8 mm 5 mps 727 mmHg 75%
    13:00 +25°C° 0.4 mm 5 mps 727 mmHg 73%
    14:00 +25°C° 0.4 mm 5 mps 727 mmHg 71%
    15:00 +26°C° 0.4 mm 5 mps 727 mmHg 69%
    16:00 +25°C° 0.4 mm 4 mps 727 mmHg 71%
    17:00 +25°C° 0.4 mm 4 mps 728 mmHg 73%
    18:00 +25°C° 0.4 mm 3 mps 728 mmHg 76%
    19:00 +22°C° 0.3 mm 3 mps 728 mmHg 78%
    20:00 +21°C° 0.3 mm 2 mps 728 mmHg 80%
    21:00 +20°C° 0.3 mm 2 mps 728 mmHg 82%
    22:00 +20°C° 0 mm 2 mps 729 mmHg 83%
    23:00 +19°C° 0 mm 2 mps 729 mmHg 84%

    Day after tomorrow, 19 July, Thursday

    Time Temperature Precipitation Wind Pressure Humidity
    00:00 +19°C° 0 mm 2 mps 729 mmHg 85%
    01:00 +19°C° 0 mm 2 mps 729 mmHg 85%
    02:00 +18°C° 0 mm 2 mps 729 mmHg 85%
    03:00 +18°C° 0 mm 2 mps 729 mmHg 86%
    04:00 +19°C° 0 mm 2 mps 729 mmHg 84%
    05:00 +19°C° 0 mm 2 mps 730 mmHg 83%
    06:00 +20°C° 0 mm 2 mps 730 mmHg 82%
    07:00 +22°C° 0.1 mm 3 mps 730 mmHg 77%
    08:00 +24°C° 0.1 mm 3 mps 730 mmHg 73%
    09:00 +26°C° 0.1 mm 4 mps 731 mmHg 68%
    10:00 +26°C° 0.3 mm 4 mps 731 mmHg 65%
    11:00 +27°C° 0.3 mm 5 mps 731 mmHg 63%
    12:00 +28°C° 0.3 mm 5 mps 731 mmHg 60%
    13:00 +28°C° 0.2 mm 5 mps 731 mmHg 58%
    14:00 +28°C° 0.2 mm 4 mps 731 mmHg 56%
    15:00 +29°C° 0.2 mm 4 mps 731 mmHg 55%
    16:00 +28°C° 0 mm 3 mps 731 mmHg 59%
    17:00 +28°C° 0 mm 2 mps 731 mmHg 63%
    18:00 +27°C° 0 mm 1 mps 732 mmHg 67%
    19:00 +26°C° 0.5 mm 2 mps 732 mmHg 71%
    20:00 +24°C° 0.5 mm 2 mps 732 mmHg 75%
    21:00 +23°C° 0.5 mm 2 mps 732 mmHg 79%
    22:00 +21°C° 2.3 mm 2 mps 732 mmHg 83%
    23:00 +21°C° 2.3 mm 2 mps 732 mmHg 86%

    20 July, Friday

    Time Temperature Precipitation Wind Pressure Humidity
    00:00 +20°C° 2.3 mm 2 mps 732 mmHg 90%
    01:00 +20°C° 0.4 mm 2 mps 732 mmHg 89%
    02:00 +20°C° 0.4 mm 2 mps 732 mmHg 89%
    03:00 +20°C° 0.4 mm 1 mps 732 mmHg 88%
    04:00 +20°C° 0.3 mm 2 mps 732 mmHg 88%
    05:00 +20°C° 0.3 mm 2 mps 732 mmHg 87%
    06:00 +21°C° 0.3 mm 2 mps 732 mmHg 86%
    07:00 +23°C° 0.1 mm 2 mps 732 mmHg 83%
    08:00 +24°C° 0.1 mm 2 mps 732 mmHg 81%
    09:00 +24°C° 0.1 mm 3 mps 732 mmHg 78%
    10:00 +27°C° 0 mm 3 mps 732 mmHg 70%
    11:00 +29°C° 0 mm 3 mps 732 mmHg 61%
    12:00 +32°C° 0 mm 4 mps 731 mmHg 53%
    13:00 +32°C° 0 mm 4 mps 731 mmHg 53%
    14:00 +32°C° 0 mm 5 mps 731 mmHg 52%
    15:00 +33°C° 0 mm 5 mps 731 mmHg 52%
    16:00 +30°C° 1.8 mm 6 mps 731 mmHg 60%
    17:00 +28°C° 1.8 mm 7 mps 731 mmHg 68%
    18:00 +26°C° 1.8 mm 7 mps 730 mmHg 76%
    19:00 +24°C° 4.6 mm 6 mps 731 mmHg 80%
    20:00 +22°C° 4.6 mm 5 mps 731 mmHg 84%
    21:00 +21°C° 4.6 mm 3 mps 731 mmHg 88%
    22:00 +21°C° 0.6 mm 3 mps 731 mmHg 88%
    23:00 +21°C° 0.6 mm 2 mps 731 mmHg 88%

    21 July, Saturday

    Time Temperature Precipitation Wind Pressure Humidity
    00:00 +21°C° 0.6 mm 2 mps 731 mmHg 88%
    01:00 +21°C° 0.1 mm 2 mps 731 mmHg 89%
    02:00 +20°C° 0.1 mm 2 mps 731 mmHg 90%
    03:00 +20°C° 0.1 mm 2 mps 731 mmHg 91%
    04:00 +20°C° 0 mm 2 mps 731 mmHg 91%
    05:00 +21°C° 0 mm 3 mps 731 mmHg 90%
    06:00 +21°C° 0 mm 3 mps 732 mmHg 89%
    07:00 +24°C° 0 mm 3 mps 732 mmHg 84%
    08:00 +25°C° 0 mm 3 mps 732 mmHg 78%
    09:00 +27°C° 0 mm 4 mps 732 mmHg 73%
    10:00 +28°C° 0 mm 4 mps 732 mmHg 68%
    11:00 +29°C° 0 mm 4 mps 732 mmHg 63%
    12:00 +30°C° 0 mm 4 mps 732 mmHg 59%
    13:00 +30°C° 0.2 mm 4 mps 732 mmHg 59%
    14:00 +30°C° 0.2 mm 4 mps 732 mmHg 59%
    15:00 +32°C° 0.2 mm 5 mps 731 mmHg 59%
    16:00 +30°C° 0.5 mm 4 mps 731 mmHg 63%
    17:00 +29°C° 0.5 mm 4 mps 731 mmHg 68%
    18:00 +28°C° 0.5 mm 3 mps 731 mmHg 73%
    19:00 +27°C° 0.1 mm 3 mps 731 mmHg 75%
    20:00 +25°C° 0.1 mm 3 mps 731 mmHg 78%
    21:00 +24°C° 0.1 mm 3 mps 731 mmHg 81%
    22:00 +23°C° 0 mm 4 mps 731 mmHg 82%
    23:00 +23°C° 0 mm 4 mps 731 mmHg 84%

    22 July, Sunday

    Time Temperature Precipitation Wind Pressure Humidity
    00:00 +22°C° 0 mm 4 mps 731 mmHg 85%
    01:00 +22°C° 0.2 mm 4 mps 731 mmHg 88%
    02:00 +21°C° 0.2 mm 3 mps 731 mmHg 90%
    03:00 +21°C° 0.2 mm 3 mps 730 mmHg 92%
    04:00 +21°C° 0 mm 3 mps 730 mmHg 92%
    05:00 +21°C° 0 mm 4 mps 730 mmHg 91%
    06:00 +21°C° 0 mm 4 mps 730 mmHg 90%
    07:00 +21°C° 0.2 mm 4 mps 730 mmHg 88%
    08:00 +22°C° 0.2 mm 4 mps 730 mmHg 85%
    09:00 +22°C° 0.2 mm 4 mps 730 mmHg 82%
    10:00 +25°C° 0 mm 5 mps 730 mmHg 77%
    11:00 +26°C° 0 mm 5 mps 730 mmHg 71%
    12:00 +28°C° 0 mm 6 mps 730 mmHg 66%
    13:00 +29°C° 0 mm 5 mps 730 mmHg 61%
    14:00 +32°C° 0 mm 5 mps 730 mmHg 57%
    15:00 +33°C° 0 mm 5 mps 730 mmHg 53%
    16:00 +32°C° 0 mm 5 mps 730 mmHg 57%
    17:00 +30°C° 0 mm 5 mps 730 mmHg 61%
    18:00 +29°C° 0 mm 5 mps 729 mmHg 65%
    19:00 +27°C° 0.5 mm 5 mps 729 mmHg 69%
    20:00 +26°C° 0.5 mm 6 mps 730 mmHg 74%
    21:00 +23°C° 0.5 mm 6 mps 730 mmHg 78%
    22:00 +22°C° 0.8 mm 5 mps 730 mmHg 81%
    23:00 +21°C° 0.8 mm 5 mps 730 mmHg 84%
    Show more